[[{"header":{"parameterUnit":"m.s-1","parameterCategory":1,"la1":30.2991,"la2":30.254,"lo1":-89.0895,"lo2":-89.0444,"dy":0.0017,"dx":0.0017,"nx":28,"ny":28,"refTime":"2023-07-31T03:00:00:Z","depth":0,"parameterNumber":2,"parameterNumberName":"U-component_of_WINDS"},"data":[0,0,0,0,0,0,0,0,0,0,0,0,0,0,0,0,0,0,0,0,0,0,0,0,0,0,0,0,0,0,0,0,0,0,0,0,0,0,0,0,0,0,0,0,0,0,0,0,0,0,0,0,0,0,0,0,0,0,0.1427,0.1428,0,0.1554,0.1555,0.1557,0.1622,0.1622,0.1622,0.1622,0.1754,0.1757,0.1761,0,0,0,0,0,0,0,0,0,0,0,0,0,0.1241,0.1244,0.1427,0.1428,0.143,0.1553,0.1555,0.1557,0.1622,0.1622,0.1622,0.1622,0.1753,0.1757,0.1761,0,0,0,0,0,0,0,0,0,0,0,0,0,0.134,0.1245,0.1426,0.1477,0.1483,0.1553,0.1555,0.1557,0.1622,0.1622,0.1622,0.1622,0.1752,0.1757,0.1762,0.1791,0,0,0.1777,0.178,0,0,0,0,0,0,0,0,0.1334,0.1347,0.1468,0.1474,0.148,0.1572,0.1538,0.1636,0.1622,0.1569,0.1622,0.1623,0.1694,0.1704,0.1727,0.1797,0.1803,0.1778,0.1781,0.1783,0.1785,0,0,0,0,0,0,0,0.1328,0.1342,0.1477,0.147,0.1477,0.1494,0.1508,0.1557,0.1629,0.1574,0.1579,0.1593,0.1697,0.1722,0.1731,0.1805,0.1778,0.1782,0.1786,0.1788,0.1905,0.1905,0,0,0,0,0,0,0.1312,0.1336,0.1473,0.1481,0.1406,0.1497,0.1513,0.1543,0.1629,0.1642,0.1593,0.1596,0.1713,0.1725,0.1736,0.1775,0.1783,0.1788,0.1791,0.1905,0.1905,0.1905,0,0,0,0,0,0,0.1308,0.1324,0.1468,0.141,0.1429,0.15,0.1533,0.1545,0.157,0.1643,0.1657,0.1605,0.1714,0.1728,0.1777,0.1781,0.179,0.1795,0.1905,0.1905,0.1905,0.1855,0,0,0,0,0,0,0.1302,0.1322,0.1334,0.1409,0.1432,0.1506,0.1533,0.1547,0.1579,0.1584,0.1658,0.1671,0.1715,0.1768,0.1782,0.1788,0.1799,0.1905,0.1905,0.1905,0.1856,0.1853,0.185,0,0,0,0,0,0.1296,0.1315,0.1334,0.135,0.1448,0.1506,0.1519,0.1569,0.1579,0.1591,0.1638,0.1668,0.1778,0.1773,0.1788,0.1796,0.1905,0.1905,0.1905,0.1858,0.1854,0.185,0,0,0,0,0,0,0.1239,0.1326,0.1348,0.1393,0.1441,0.1517,0.1535,0.1564,0.1611,0.1614,0.1674,0.1691,0.1733,0.177,0.1762,0.1829,0.1844,0.1848,0.1803,0.18,0.1797,0.1787,0.1803,0,0,0,0,0,0.1232,0.1272,0.1346,0.1378,0.1401,0.1463,0.1491,0.1525,0.1578,0.1599,0.165,0.17,0.1746,0.1775,0.1822,0.1862,0.1879,0.1875,0.1872,0.1869,0.1871,0.1894,0.1893,0.1905,0.1905,0.1905,0,0,0.1218,0.127,0.1291,0.1368,0.141,0.1449,0.148,0.1521,0.1551,0.1606,0.1654,0.1692,0.1753,0.1797,0.1819,0.1829,0.1871,0.1869,0.1866,0.187,0.1894,0.1893,0.1892,0.1905,0.1905,0.1905,0,0,0.1211,0.1255,0.1286,0.1327,0.139,0.1431,0.1438,0.1509,0.1537,0.1586,0.1627,0.1664,0.1742,0.1783,0.1814,0.1822,0.1851,0.1835,0.1819,0.1841,0.184,0.184,0.1842,0.1842,0.1837,0.1837,0.1837,0,0.1186,0.1247,0.1299,0.1337,0.1369,0.1419,0.1451,0.1488,0.1563,0.1584,0.1594,0.1691,0.1736,0.179,0.1791,0.1815,0.1825,0.1827,0.1836,0.1836,0.1836,0.1839,0.1839,0.1834,0.1835,0.1835,0.1835,0,0.1212,0.1253,0.1271,0.1341,0.1375,0.141,0.1467,0.1495,0.1526,0.1566,0.1615,0.167,0.1727,0.1743,0.1774,0.1801,0.1805,0.1824,0.1841,0.1832,0.1835,0.1837,0.1831,0.1832,0.1833,0.1833,0,0,0.1174,0.1271,0.1277,0.1309,0.1381,0.1414,0.1451,0.1507,0.1529,0.1579,0.1611,0.1675,0.1693,0.1728,0.1764,0.1783,0.1785,0.1801,0.1803,0.1795,0.1817,0.1801,0.1802,0.1804,0.1805,0.1805,0.1812,0,0.1178,0.1246,0.1293,0.1343,0.1381,0.1429,0.1461,0.1508,0.1546,0.1584,0.1627,0.1671,0.1692,0.1713,0.1734,0.178,0.179,0.178,0.1835,0.1836,0.1818,0.1804,0.1788,0.1791,0.1813,0.1814,0.1814,0,0.1192,0.1239,0.1292,0.1358,0.1376,0.1404,0.1458,0.1495,0.1549,0.1575,0.1613,0.165,0.169,0.1703,0.176,0.1752,0.1777,0.1803,0.1804,0.1811,0.1824,0.181,0.1794,0.1794,0.1817,0.1816,0.1816,0,0.1158,0.1235,0.1276,0.1302,0.1381,0.1399,0.1433,0.1488,0.1518,0.1565,0.1585,0.1637,0.1665,0.1704,0.1753,0.1758,0.1804,0.1822,0.1827,0.1826,0.1835,0.1834,0.1822,0.1851,0.1851,0.1851,0.1851,0,0.1158,0.1188,0.1262,0.1288,0.1323,0.1377,0.141,0.1448,0.1496,0.1529,0.1573,0.1604,0.1667,0.1705,0.1744,0.1784,0.1797,0.1819,0.1829,0.1815,0.1812,0.1832,0.1833,0.1852,0.1852,0.1852,0.1851,0,0.1127,0.1178,0.1226,0.1296,0.1314,0.1337,0.1397,0.1424,0.1463,0.1505,0.1518,0.158,0.1627,0.168,0.1745,0.1771,0.1808,0.1823,0.179,0.1795,0.1797,0.1796,0.1798,0.1801,0.1828,0.1828,0.1827,0,0.1123,0.1147,0.1219,0.1244,0.1277,0.1317,0.1348,0.1401,0.1431,0.1494,0.1512,0.1562,0.1605,0.1678,0.173,0.1779,0.1795,0.1792,0.1803,0.1787,0.1794,0.1792,0.1794,0.1789,0.1788,0.1788,0.1788,0,0.111,0.1133,0.1175,0.1226,0.1261,0.1303,0.1347,0.1366,0.1428,0.1459,0.1507,0.154,0.1605,0.1654,0.171,0.1745,0.1776,0.1784,0.1787,0.1773,0.1752,0.1763,0.1781,0.1783,0.1784,0.1784,0.1784,0.1785,0.1092,0.1115,0.1169,0.1215,0.1253,0.1293,0.1321,0.1363,0.1404,0.1461,0.149,0.1537,0.1591,0.1668,0.1702,0.174,0.175,0.1756,0.1757,0.1758,0.1753,0.1746,0.175,0.175,0.1751,0.1751,0.1751,0,0.1081,0.1118,0.1159,0.1218,0.1253,0.1279,0.1329,0.1357,0.1398,0.1444,0.1485,0.1539,0.1587,0.1641,0.1692,0.1711,0.1727,0.1723,0.1722,0.1729,0.1741,0.1733,0.1709,0.1709,0.1709,0.1709,0.1709,0.1709,0.1079,0.112,0.1149,0.1209,0.1246,0.1292,0.1318,0.1355,0.1392,0.1451,0.149,0.1525,0.1574,0.1629,0.1673,0.1688,0.1704,0.1695,0.1714,0.1725,0.1728,0.1732,0.1724,0.1699,0.1699,0.1699,0.1699,0.1699]},{"header":{"parameterUnit":"m.s-1","parameterCategory":1,"la1":30.2991,"la2":30.254,"lo1":-89.0895,"lo2":-89.0444,"dy":0.0017,"dx":0.0017,"nx":28,"ny":28,"refTime":"2023-07-31T03:00:00:Z","depth":0,"parameterNumber":3,"parameterNumberName":"V-component_of_WINDS"},"data":[0,0,0,0,0,0,0,0,0,0,0,0,0,0,0,0,0,0,0,0,0,0,0,0,0,0,0,0,0,0,0,0,0,0,0,0,0,0,0,0,0,0,0,0,0,0,0,0,0,0,0,0,0,0,0,0,0,0,2.8539,2.8539,0,2.8521,2.852,2.852,2.8506,2.8506,2.8506,2.8506,2.8483,2.8483,2.8482,0,0,0,0,0,0,0,0,0,0,0,0,0,2.8561,2.8561,2.8539,2.8539,2.8539,2.8521,2.852,2.852,2.8506,2.8506,2.8506,2.8506,2.8484,2.8483,2.8482,0,0,0,0,0,0,0,0,0,0,0,0,0,2.8548,2.8561,2.854,2.853,2.8529,2.8521,2.852,2.852,2.8506,2.8506,2.8506,2.8506,2.8484,2.8483,2.8482,2.8481,0,0,2.848,2.848,0,0,0,0,0,0,0,0,2.8549,2.8547,2.8532,2.8531,2.8529,2.8516,2.852,2.8507,2.8506,2.8515,2.8506,2.8506,2.8494,2.8492,2.8489,2.848,2.8479,2.848,2.848,2.8479,2.8479,0,0,0,0,0,0,0,2.855,2.8548,2.8532,2.8531,2.853,2.8526,2.8524,2.8517,2.8505,2.8514,2.8513,2.8511,2.8493,2.849,2.8489,2.8479,2.848,2.8479,2.8479,2.8479,2.8468,2.8469,0,0,0,0,0,0,2.8552,2.8549,2.8533,2.8531,2.8539,2.8526,2.8523,2.852,2.8506,2.8503,2.8511,2.851,2.8491,2.8489,2.8488,2.8486,2.8479,2.8479,2.8478,2.8468,2.8468,2.8469,0,0,0,0,0,0,2.8553,2.8551,2.8533,2.854,2.8537,2.8525,2.8522,2.852,2.8516,2.8503,2.8501,2.851,2.8491,2.8489,2.8483,2.8485,2.8478,2.8478,2.8468,2.8468,2.8469,2.8481,0,0,0,0,0,0,2.8554,2.8551,2.8551,2.854,2.8537,2.853,2.8522,2.852,2.8516,2.8514,2.8502,2.8499,2.8491,2.8484,2.8483,2.8484,2.8477,2.8468,2.8468,2.8468,2.8481,2.8482,2.8483,0,0,0,0,0,2.8554,2.8555,2.8551,2.855,2.8537,2.853,2.8528,2.8519,2.8516,2.8515,2.8507,2.85,2.8485,2.8484,2.8482,2.8483,2.8468,2.8468,2.8468,2.848,2.8482,2.8483,0,0,0,0,0,0,2.8566,2.8553,2.8549,2.8546,2.854,2.8528,2.8527,2.8521,2.8514,2.8513,2.8501,2.8499,2.8494,2.8488,2.8487,2.8481,2.8475,2.8475,2.8485,2.8487,2.8488,2.8489,2.8476,0,0,0,0,0,2.8568,2.8565,2.8553,2.8552,2.8549,2.8539,2.8535,2.8529,2.8521,2.8518,2.8509,2.8501,2.8494,2.849,2.8483,2.848,2.8477,2.848,2.8481,2.8482,2.8482,2.8479,2.848,2.847,2.847,2.847,0,0,2.8573,2.8565,2.8563,2.8554,2.8548,2.8544,2.8536,2.8532,2.8528,2.8517,2.8511,2.8505,2.8495,2.849,2.8488,2.8485,2.8484,2.8482,2.8483,2.8482,2.848,2.8481,2.8482,2.847,2.847,2.847,0,0,2.8578,2.8573,2.8571,2.8566,2.8557,2.855,2.855,2.8539,2.8535,2.8529,2.8521,2.8516,2.8505,2.8498,2.8494,2.8498,2.8491,2.8496,2.8502,2.85,2.8501,2.8501,2.8503,2.8503,2.8496,2.8496,2.8496,0,2.8585,2.8579,2.8571,2.8567,2.8563,2.8554,2.8552,2.8546,2.8535,2.8533,2.853,2.8516,2.8509,2.8503,2.8504,2.8501,2.8499,2.8497,2.8502,2.8502,2.8503,2.8504,2.8504,2.8497,2.8497,2.8497,2.8497,0,2.8587,2.8583,2.8582,2.8574,2.857,2.8567,2.8557,2.8554,2.8549,2.8542,2.8537,2.8528,2.8519,2.8517,2.8511,2.8511,2.8509,2.8504,2.8498,2.8504,2.8505,2.8506,2.8498,2.8498,2.8497,2.8497,0,0,2.8598,2.8586,2.8586,2.8582,2.8572,2.8569,2.8565,2.8558,2.8555,2.8548,2.8545,2.8537,2.8532,2.8527,2.852,2.8518,2.8522,2.8513,2.8513,2.8515,2.8521,2.8524,2.8525,2.8518,2.8518,2.8518,2.8521,0,2.8603,2.8597,2.859,2.8586,2.8583,2.8574,2.8571,2.8564,2.8558,2.8554,2.8546,2.8541,2.8535,2.8532,2.853,2.8522,2.8523,2.8522,2.8514,2.8513,2.8516,2.8525,2.8529,2.8533,2.8522,2.8522,2.8522,0,2.8606,2.8601,2.8598,2.8589,2.8587,2.8585,2.8577,2.8573,2.8566,2.8561,2.8556,2.8549,2.8544,2.854,2.8533,2.8532,2.8529,2.8524,2.8524,2.8523,2.8518,2.8523,2.8533,2.8534,2.8522,2.8522,2.8522,0,2.8615,2.8607,2.8604,2.8601,2.859,2.8589,2.8584,2.8577,2.8573,2.8566,2.8564,2.8557,2.8553,2.8547,2.8538,2.8536,2.8532,2.8527,2.8528,2.8528,2.8527,2.8527,2.8536,2.8525,2.8525,2.8525,2.8525,0,2.862,2.8618,2.8608,2.8606,2.8603,2.8595,2.8593,2.8587,2.858,2.8577,2.8569,2.8565,2.8554,2.8549,2.8542,2.8537,2.8536,2.8532,2.853,2.8532,2.8533,2.8529,2.8528,2.8525,2.8525,2.8525,2.8525,0,2.8629,2.8622,2.8618,2.8609,2.8607,2.8605,2.8597,2.8594,2.8588,2.8584,2.8582,2.8572,2.8566,2.8557,2.8548,2.8543,2.854,2.8537,2.8543,2.8541,2.8543,2.8543,2.8549,2.855,2.8539,2.854,2.854,0,2.8633,2.8631,2.8622,2.862,2.8616,2.8612,2.8608,2.86,2.8596,2.8588,2.8586,2.858,2.8574,2.8565,2.8556,2.8549,2.8546,2.8548,2.8544,2.8547,2.8545,2.8545,2.8545,2.8549,2.8549,2.8549,2.855,0,2.8639,2.8636,2.8632,2.8627,2.8623,2.8618,2.8613,2.8611,2.8601,2.8598,2.8592,2.8588,2.8579,2.8573,2.8565,2.8559,2.8552,2.8551,2.8551,2.8553,2.8557,2.8554,2.8545,2.8551,2.8551,2.8551,2.855,2.855,2.8646,2.8644,2.8638,2.8633,2.8629,2.8624,2.8621,2.8615,2.8611,2.8604,2.8599,2.8593,2.8586,2.8574,2.8569,2.8564,2.8562,2.8561,2.8561,2.8561,2.8562,2.8558,2.8563,2.8563,2.8563,2.8563,2.8563,0,2.8652,2.8648,2.8644,2.8637,2.8633,2.8629,2.8623,2.862,2.8616,2.861,2.8605,2.8598,2.8592,2.8583,2.8576,2.8574,2.8571,2.8572,2.8572,2.8571,2.8565,2.8566,2.8575,2.8575,2.8575,2.8575,2.8575,2.8575,2.8655,2.8652,2.8648,2.8643,2.8638,2.8633,2.863,2.8626,2.8621,2.8614,2.861,2.8605,2.8597,2.859,2.8584,2.8581,2.8579,2.8581,2.8578,2.8572,2.8571,2.857,2.8571,2.8581,2.8581,2.8584,2.8584,2.8584]}]]